When you browse on this site, cookies collect data to enhance your experience and personalize the content and advertising you see.
Visit our Privacy Policy to learn more. By continuing to use the site, you agree to this use of cookies and data.
  • In Austria
  • List of Countries
  • For 7 days
  • Water Temperature
  • Weather Map
  • News
  • Weather Widgets
  • user-avatar
    Login

    Hourly Weather Kakanj

    Today, 28 February, Friday

    Time Temperature Precipitation Wind Pressure Humidity
    00:00 0°C° 0 mm 3 mps 715 mmHg 83%
    01:00 0°C° 0 mm 4 mps 715 mmHg 81%
    02:00 0°C° 0 mm 4 mps 714 mmHg 83%
    03:00 0°C° 0 mm 4 mps 713 mmHg 85%
    04:00 -1°C° 0 mm 4 mps 713 mmHg 86%
    05:00 +1°C° 1.4 mm 3 mps 713 mmHg 89%
    06:00 +2°C° 1.4 mm 2 mps 713 mmHg 92%
    07:00 +2°C° 1.4 mm 2 mps 713 mmHg 95%
    08:00 +3°C° 0.5 mm 2 mps 714 mmHg 90%
    09:00 +3°C° 0.5 mm 3 mps 715 mmHg 86%
    10:00 +4°C° 0.5 mm 4 mps 717 mmHg 81%
    11:00 +4°C° 0.3 mm 4 mps 717 mmHg 80%
    12:00 +4°C° 0.3 mm 4 mps 718 mmHg 80%
    13:00 +3°C° 0.3 mm 5 mps 719 mmHg 79%
    14:00 +3°C° 0.3 mm 4 mps 719 mmHg 79%
    15:00 +3°C° 0.3 mm 4 mps 720 mmHg 79%
    16:00 +3°C° 0.3 mm 3 mps 721 mmHg 79%
    17:00 +2°C° 0.1 mm 3 mps 722 mmHg 81%
    18:00 +2°C° 0.1 mm 2 mps 722 mmHg 83%
    19:00 +1°C° 0.1 mm 1 mps 723 mmHg 85%
    20:00 +1°C° 0 mm 1 mps 724 mmHg 85%
    21:00 +1°C° 0 mm 1 mps 724 mmHg 86%
    22:00 0°C° 0 mm 1 mps 725 mmHg 87%
    23:00 0°C° 0 mm 1 mps 725 mmHg 88%

    Tomorrow, 29 February, Saturday

    Time Temperature Precipitation Wind Pressure Humidity
    00:00 -1°C° 0 mm 0 mps 725 mmHg 89%
    01:00 -1°C° 0 mm 0 mps 726 mmHg 89%
    02:00 -2°C° 0 mm 0 mps 725 mmHg 90%
    03:00 -1°C° 0 mm 1 mps 725 mmHg 90%
    04:00 -1°C° 0 mm 1 mps 725 mmHg 91%
    05:00 -1°C° 0 mm 1 mps 725 mmHg 90%
    06:00 -1°C° 0 mm 1 mps 725 mmHg 89%
    07:00 -1°C° 0 mm 1 mps 724 mmHg 88%
    08:00 +1°C° 0 mm 1 mps 724 mmHg 84%
    09:00 +3°C° 0 mm 1 mps 724 mmHg 80%
    10:00 +4°C° 0 mm 2 mps 724 mmHg 75%
    11:00 +5°C° 0 mm 2 mps 724 mmHg 74%
    12:00 +6°C° 0 mm 2 mps 723 mmHg 73%
    13:00 +6°C° 0 mm 2 mps 723 mmHg 71%
    14:00 +6°C° 0 mm 2 mps 722 mmHg 74%
    15:00 +6°C° 0 mm 2 mps 722 mmHg 77%
    16:00 +6°C° 0 mm 2 mps 721 mmHg 80%
    17:00 +5°C° 0 mm 2 mps 721 mmHg 81%
    18:00 +4°C° 0 mm 2 mps 721 mmHg 82%
    19:00 +2°C° 0 mm 2 mps 721 mmHg 83%
    20:00 +1°C° 0 mm 3 mps 720 mmHg 81%
    21:00 +1°C° 0 mm 3 mps 720 mmHg 80%
    22:00 0°C° 0 mm 3 mps 720 mmHg 78%
    23:00 0°C° 0 mm 3 mps 720 mmHg 78%

    Day after tomorrow, 1 March, Sunday

    Time Temperature Precipitation Wind Pressure Humidity
    00:00 0°C° 0 mm 3 mps 720 mmHg 78%
    01:00 0°C° 0 mm 3 mps 720 mmHg 78%
    02:00 +1°C° 0 mm 3 mps 720 mmHg 78%
    03:00 +1°C° 0 mm 3 mps 720 mmHg 77%
    04:00 +1°C° 0 mm 3 mps 720 mmHg 77%
    05:00 +2°C° 0 mm 3 mps 720 mmHg 78%
    06:00 +3°C° 0 mm 2 mps 720 mmHg 79%
    07:00 +3°C° 0 mm 2 mps 719 mmHg 81%
    08:00 +4°C° 0 mm 2 mps 719 mmHg 81%
    09:00 +5°C° 0 mm 2 mps 719 mmHg 82%
    10:00 +7°C° 0 mm 2 mps 719 mmHg 82%
    11:00 +7°C° 0 mm 3 mps 719 mmHg 84%
    12:00 +8°C° 0 mm 3 mps 719 mmHg 85%
    13:00 +8°C° 0 mm 3 mps 718 mmHg 86%
    14:00 +8°C° 0.1 mm 3 mps 718 mmHg 88%
    15:00 +8°C° 0.1 mm 2 mps 717 mmHg 90%
    16:00 +7°C° 0.1 mm 2 mps 716 mmHg 93%
    17:00 +7°C° 0.7 mm 2 mps 716 mmHg 94%
    18:00 +7°C° 0.7 mm 2 mps 716 mmHg 95%
    19:00 +6°C° 0.7 mm 2 mps 716 mmHg 96%
    20:00 +6°C° 0.5 mm 2 mps 716 mmHg 96%
    21:00 +7°C° 0.5 mm 2 mps 715 mmHg 96%
    22:00 +7°C° 0.5 mm 2 mps 715 mmHg 96%
    23:00 +7°C° 0.5 mm 2 mps 714 mmHg 96%

    2 March, Monday

    Time Temperature Precipitation Wind Pressure Humidity
    00:00 +7°C° 0.5 mm 2 mps 714 mmHg 96%
    01:00 +7°C° 0.5 mm 2 mps 713 mmHg 96%
    02:00 +7°C° 0.9 mm 3 mps 713 mmHg 95%
    03:00 +8°C° 0.9 mm 3 mps 712 mmHg 95%
    04:00 +8°C° 0.9 mm 3 mps 712 mmHg 95%
    05:00 +8°C° 2 mm 3 mps 712 mmHg 95%
    06:00 +8°C° 2 mm 2 mps 713 mmHg 95%
    07:00 +8°C° 2 mm 2 mps 713 mmHg 95%
    08:00 +9°C° 0.2 mm 3 mps 713 mmHg 89%
    09:00 +10°C° 0.2 mm 3 mps 714 mmHg 83%
    10:00 +11°C° 0.2 mm 4 mps 714 mmHg 77%
    11:00 +10°C° 0.2 mm 5 mps 714 mmHg 75%
    12:00 +10°C° 0.2 mm 5 mps 715 mmHg 72%
    13:00 +10°C° 0.2 mm 6 mps 715 mmHg 70%
    14:00 +10°C° 0 mm 5 mps 715 mmHg 72%
    15:00 +11°C° 0 mm 4 mps 715 mmHg 74%
    16:00 +10°C° 0 mm 3 mps 714 mmHg 75%
    17:00 +9°C° 0 mm 3 mps 715 mmHg 80%
    18:00 +8°C° 0 mm 3 mps 715 mmHg 84%
    19:00 +7°C° 0 mm 2 mps 715 mmHg 88%
    20:00 +7°C° 0.3 mm 2 mps 714 mmHg 89%
    21:00 +7°C° 0.3 mm 2 mps 714 mmHg 90%
    22:00 +6°C° 0.3 mm 2 mps 714 mmHg 91%
    23:00 +7°C° 0.6 mm 2 mps 713 mmHg 92%

    3 March, Tuesday

    Time Temperature Precipitation Wind Pressure Humidity
    00:00 +7°C° 0.6 mm 2 mps 712 mmHg 92%
    01:00 +7°C° 0.6 mm 2 mps 712 mmHg 93%
    02:00 +7°C° 0.5 mm 2 mps 711 mmHg 93%
    03:00 +6°C° 0.5 mm 2 mps 710 mmHg 93%
    04:00 +5°C° 0.5 mm 3 mps 709 mmHg 93%
    05:00 +6°C° 1.1 mm 2 mps 709 mmHg 94%
    06:00 +6°C° 1.1 mm 2 mps 709 mmHg 94%
    07:00 +7°C° 1.1 mm 1 mps 709 mmHg 95%
    08:00 +8°C° 0.8 mm 1 mps 709 mmHg 94%
    09:00 +8°C° 0.8 mm 1 mps 709 mmHg 93%
    10:00 +9°C° 0.8 mm 1 mps 710 mmHg 92%
    11:00 +9°C° 1 mm 1 mps 710 mmHg 93%
    12:00 +8°C° 1 mm 1 mps 710 mmHg 94%
    13:00 +7°C° 1 mm 2 mps 711 mmHg 94%
    14:00 +7°C° 0.2 mm 2 mps 711 mmHg 93%
    15:00 +7°C° 0.2 mm 2 mps 712 mmHg 93%
    16:00 +7°C° 0.2 mm 2 mps 712 mmHg 92%
    17:00 +6°C° 0.1 mm 2 mps 713 mmHg 92%
    18:00 +6°C° 0.1 mm 2 mps 714 mmHg 93%
    19:00 +5°C° 0.1 mm 2 mps 714 mmHg 94%
    20:00 +6°C° 0 mm 1 mps 715 mmHg 94%
    21:00 +5°C° 0 mm 1 mps 715 mmHg 94%
    22:00 +5°C° 0 mm 1 mps 716 mmHg 95%
    23:00 +5°C° 0 mm 1 mps 716 mmHg 95%

    4 March, Wednesday

    Time Temperature Precipitation Wind Pressure Humidity
    00:00 +5°C° 0 mm 1 mps 716 mmHg 96%
    01:00 +5°C° 0 mm 1 mps 716 mmHg 96%
    02:00 +4°C° 0.1 mm 1 mps 716 mmHg 96%
    03:00 +4°C° 0.1 mm 1 mps 716 mmHg 96%
    04:00 +4°C° 0.1 mm 1 mps 716 mmHg 95%
    05:00 +4°C° 0 mm 1 mps 716 mmHg 94%
    06:00 +2°C° 0 mm 0 mps 716 mmHg 93%
    07:00 +2°C° 0 mm 0 mps 716 mmHg 92%
    08:00 +4°C° 0 mm 0 mps 716 mmHg 86%
    09:00 +5°C° 0 mm 0 mps 716 mmHg 80%
    10:00 +7°C° 0 mm 1 mps 716 mmHg 73%
    11:00 +8°C° 0 mm 1 mps 716 mmHg 71%
    12:00 +8°C° 0 mm 0 mps 716 mmHg 69%
    13:00 +9°C° 0 mm 0 mps 715 mmHg 66%
    14:00 +8°C° 0 mm 0 mps 715 mmHg 66%
    15:00 +8°C° 0 mm 0 mps 714 mmHg 66%
    16:00 +8°C° 0 mm 0 mps 714 mmHg 66%
    17:00 +7°C° 0 mm 0 mps 714 mmHg 71%
    18:00 +6°C° 0 mm 0 mps 714 mmHg 75%
    19:00 +7°C° 0 mm 1 mps 714 mmHg 79%
    20:00 +6°C° 0 mm 1 mps 713 mmHg 81%
    21:00 +5°C° 0 mm 1 mps 713 mmHg 83%
    22:00 +5°C° 0 mm 1 mps 713 mmHg 84%
    23:00 +5°C° 0 mm 1 mps 713 mmHg 85%
    Show more